[[{"header":{"parameterUnit":"m.s-1","parameterCategory":2,"la1":30.2991,"la2":30.254,"lo1":-89.0895,"lo2":-89.0444,"dy":0.0017,"dx":0.0017,"nx":28,"ny":28,"refTime":"2024-10-06T03:00:00:Z","depth":"0","parameterNumber":2,"parameterNumberName":"U-component_of_CURRENTS"},"data":[0,0,0,0,0,0,0,0,0,0,0,0,0,0,0,0,0,0,0,0,0,0,0,0,0,0,0,0,0,0,0,0,0,0,0,0,0,0,0,0,0,0,0,0,0,0,0,0,0,0,0,0,0,0,0,0,0,0,0.3011,0.3012,0,0.3033,0.3033,0.3033,0.3022,0.3022,0.3022,0.3022,0.3003,0.3003,0.3003,0,0,0,0,0,0,0,0,0,0,0,0,0,0.296,0.2961,0.3011,0.3012,0.3012,0.3033,0.3033,0.3033,0.3022,0.3022,0.3022,0.3021,0.3004,0.3003,0.3003,0,0,0,0,0,0,0,0,0,0,0,0,0,0.2979,0.2961,0.3011,0.3012,0.3012,0.3033,0.3033,0.3033,0.3022,0.3022,0.3022,0.3021,0.3004,0.3003,0.3003,0.3008,0,0,0.3002,0.3002,0,0,0,0,0,0,0,0,0.2978,0.298,0.3011,0.3012,0.3013,0.3027,0.3008,0.3024,0.3023,0.3015,0.3022,0.3021,0.301,0.3009,0.301,0.3007,0.3006,0.3002,0.3002,0.3001,0.3001,0,0,0,0,0,0,0,0.2976,0.2979,0.3016,0.3012,0.3013,0.3011,0.3013,0.3011,0.3011,0.3016,0.3016,0.3024,0.301,0.301,0.3009,0.3006,0.3002,0.3001,0.3001,0.3001,0.3043,0.3044,0,0,0,0,0,0,0.2981,0.2978,0.3016,0.3017,0.2998,0.3013,0.3015,0.302,0.3012,0.3012,0.3024,0.3023,0.3011,0.301,0.3009,0.304,0.3001,0.3001,0.3001,0.3042,0.3043,0.3045,0,0,0,0,0,0,0.298,0.2984,0.3015,0.3001,0.3005,0.3014,0.3021,0.3021,0.3026,0.3019,0.3018,0.3029,0.3011,0.3009,0.302,0.3038,0.3001,0.3,0.304,0.3042,0.3044,0.3085,0,0,0,0,0,0,0.2978,0.2983,0.2988,0.3001,0.3006,0.3033,0.3021,0.3022,0.3033,0.3032,0.3023,0.3021,0.301,0.302,0.3019,0.3037,0.3,0.3039,0.3041,0.3044,0.3082,0.3088,0.3094,0,0,0,0,0,0.2976,0.2983,0.2988,0.2993,0.3012,0.3034,0.3036,0.3039,0.3034,0.304,0.3039,0.3022,0.3036,0.3021,0.302,0.3037,0.3037,0.304,0.3043,0.308,0.3087,0.3094,0,0,0,0,0,0,0.296,0.2984,0.2989,0.3002,0.3021,0.3034,0.3041,0.3044,0.3049,0.3048,0.3035,0.3033,0.3054,0.3042,0.3026,0.3059,0.3035,0.3038,0.3063,0.307,0.3076,0.309,0.3,0,0,0,0,0,0.2961,0.2973,0.2997,0.3008,0.3019,0.3032,0.304,0.3046,0.3055,0.3056,0.3052,0.3053,0.3065,0.3064,0.3071,0.3081,0.3096,0.3094,0.31,0.3105,0.3117,0.3159,0.3169,0.3055,0.3055,0.3055,0,0,0.2957,0.2973,0.2978,0.3006,0.3018,0.304,0.3035,0.3055,0.3072,0.3053,0.307,0.3075,0.3076,0.3096,0.3103,0.3085,0.3147,0.3109,0.3113,0.3122,0.3163,0.3174,0.3184,0.3057,0.3056,0.3056,0,0,0.2957,0.2971,0.2984,0.3005,0.3035,0.3047,0.3056,0.3076,0.3086,0.3105,0.3105,0.3125,0.3124,0.314,0.3144,0.3187,0.3182,0.3184,0.3216,0.3256,0.3265,0.3274,0.3313,0.3324,0.318,0.318,0.318,0,0.2951,0.2971,0.299,0.3013,0.3034,0.3052,0.3075,0.3091,0.3112,0.3129,0.3114,0.3154,0.315,0.3193,0.3207,0.32,0.3221,0.3186,0.3263,0.3272,0.328,0.3318,0.333,0.3182,0.3182,0.3182,0.3181,0,0.2965,0.2984,0.2996,0.3031,0.3055,0.3078,0.3112,0.3133,0.3144,0.3163,0.3207,0.3213,0.3237,0.3241,0.3233,0.3294,0.329,0.3271,0.3244,0.3295,0.333,0.3343,0.3186,0.3185,0.3184,0.3183,0,0,0.2936,0.2994,0.2995,0.3014,0.3069,0.3084,0.313,0.3174,0.3209,0.3227,0.3276,0.3298,0.3308,0.3317,0.3319,0.335,0.3423,0.3334,0.3335,0.337,0.3517,0.3498,0.351,0.3416,0.3418,0.342,0.3521,0,0.2938,0.2973,0.3011,0.3044,0.3066,0.3112,0.3154,0.3199,0.324,0.3292,0.3319,0.3364,0.3336,0.3357,0.3386,0.3423,0.3456,0.3398,0.3466,0.3468,0.3443,0.3524,0.3414,0.3494,0.3533,0.3535,0.3536,0,0.2934,0.296,0.2992,0.3053,0.3069,0.3096,0.317,0.3213,0.33,0.3343,0.3398,0.3424,0.3487,0.3451,0.3535,0.3499,0.3515,0.3532,0.3536,0.3514,0.3472,0.345,0.3515,0.3443,0.3555,0.3553,0.3552,0,0.2886,0.2944,0.2965,0.2986,0.306,0.3086,0.3128,0.3217,0.3276,0.3382,0.3439,0.3509,0.3558,0.3591,0.3625,0.3587,0.3719,0.3667,0.3666,0.3664,0.3584,0.3571,0.3585,0.3729,0.3729,0.3728,0.3728,0,0.2866,0.2879,0.294,0.2948,0.2987,0.3051,0.3114,0.3181,0.3298,0.3369,0.3453,0.3529,0.3597,0.3669,0.3674,0.3726,0.3759,0.3701,0.37,0.3595,0.3583,0.3525,0.3484,0.3732,0.3731,0.373,0.373,0,0.2804,0.2844,0.2871,0.294,0.2962,0.2985,0.3099,0.3151,0.3272,0.3375,0.3414,0.3573,0.3674,0.3737,0.3821,0.3797,0.3745,0.3842,0.3719,0.3702,0.3603,0.3568,0.3465,0.335,0.3854,0.3854,0.3855,0,0.2774,0.2781,0.2845,0.2861,0.2888,0.2941,0.2986,0.3119,0.3187,0.3385,0.3428,0.3588,0.3687,0.3835,0.3849,0.3894,0.3762,0.3794,0.3696,0.3612,0.3574,0.3422,0.332,0.3609,0.3607,0.3605,0.3604,0,0.2717,0.2741,0.2762,0.2799,0.2833,0.2878,0.295,0.3007,0.316,0.3262,0.3404,0.3511,0.3696,0.3727,0.3819,0.3818,0.3624,0.3764,0.3708,0.3422,0.3227,0.311,0.3531,0.3591,0.3592,0.3593,0.3594,0.3595,0.2669,0.2669,0.2701,0.2727,0.2762,0.2787,0.2792,0.2888,0.2979,0.3094,0.3273,0.3386,0.3554,0.3687,0.3669,0.3603,0.3548,0.3493,0.3473,0.3339,0.3173,0.3574,0.3611,0.3612,0.3613,0.3614,0.3615,0,0.2598,0.2607,0.2629,0.2645,0.2638,0.269,0.2741,0.2729,0.2772,0.2936,0.3041,0.3221,0.3305,0.3413,0.3462,0.3342,0.3155,0.3244,0.3004,0.2927,0.3328,0.3264,0.3189,0.3189,0.3189,0.3189,0.3189,0.3189,0.2562,0.2542,0.255,0.2505,0.2513,0.2459,0.2454,0.2463,0.2543,0.264,0.2749,0.2885,0.3195,0.3337,0.3272,0.3174,0.2902,0.2783,0.2744,0.3052,0.3072,0.3092,0.3022,0.2898,0.2897,0.2212,0.2207,0.2204]},{"header":{"parameterUnit":"m.s-1","parameterCategory":2,"la1":30.2991,"la2":30.254,"lo1":-89.0895,"lo2":-89.0444,"dy":0.0017,"dx":0.0017,"nx":28,"ny":28,"refTime":"2024-10-06T03:00:00:Z","depth":"0","parameterNumber":3,"parameterNumberName":"V-component_of_CURRENTS"},"data":[0,0,0,0,0,0,0,0,0,0,0,0,0,0,0,0,0,0,0,0,0,0,0,0,0,0,0,0,0,0,0,0,0,0,0,0,0,0,0,0,0,0,0,0,0,0,0,0,0,0,0,0,0,0,0,0,0,0,-0.0095,-0.0096,0,-0.0166,-0.0167,-0.0168,-0.0215,-0.0215,-0.0215,-0.0215,-0.0294,-0.0296,-0.0298,0,0,0,0,0,0,0,0,0,0,0,0,0,-0.0045,-0.0046,-0.0095,-0.0096,-0.0097,-0.0166,-0.0167,-0.0168,-0.0215,-0.0215,-0.0215,-0.0215,-0.0294,-0.0296,-0.0298,0,0,0,0,0,0,0,0,0,0,0,0,0,-0.0088,-0.0046,-0.0095,-0.0127,-0.0131,-0.0165,-0.0167,-0.0168,-0.0214,-0.0215,-0.0215,-0.0215,-0.0293,-0.0296,-0.0298,-0.0311,0,0,-0.0307,-0.0309,0,0,0,0,0,0,0,0,-0.0085,-0.009,-0.0122,-0.0125,-0.0129,-0.018,-0.0178,-0.0216,-0.0214,-0.0184,-0.0215,-0.0215,-0.0256,-0.0262,-0.0276,-0.0315,-0.0318,-0.0308,-0.0309,-0.0311,-0.0311,0,0,0,0,0,0,0,-0.0082,-0.0087,-0.0125,-0.0123,-0.0127,-0.0153,-0.0159,-0.0186,-0.0219,-0.0187,-0.019,-0.0195,-0.0258,-0.0273,-0.0279,-0.0319,-0.0308,-0.031,-0.0312,-0.0313,-0.0368,-0.0368,0,0,0,0,0,0,-0.0068,-0.0084,-0.0123,-0.0127,-0.0106,-0.0154,-0.0161,-0.0165,-0.0219,-0.0227,-0.0195,-0.0197,-0.0268,-0.0275,-0.0282,-0.0283,-0.0311,-0.0313,-0.0315,-0.0368,-0.0368,-0.0367,0,0,0,0,0,0,-0.0067,-0.0071,-0.012,-0.0106,-0.0114,-0.0154,-0.0159,-0.0166,-0.0178,-0.0224,-0.0233,-0.0198,-0.0269,-0.0277,-0.0298,-0.0287,-0.0315,-0.0317,-0.0368,-0.0368,-0.0368,-0.0296,0,0,0,0,0,0,-0.0065,-0.007,-0.0067,-0.0105,-0.0114,-0.0128,-0.0158,-0.0167,-0.018,-0.0183,-0.023,-0.0238,-0.027,-0.0293,-0.0301,-0.0291,-0.032,-0.0369,-0.0368,-0.0368,-0.0299,-0.0293,-0.0288,0,0,0,0,0,-0.0063,-0.0052,-0.0066,-0.0071,-0.0109,-0.0128,-0.0134,-0.0165,-0.0179,-0.0178,-0.0211,-0.0236,-0.0296,-0.0295,-0.0304,-0.0295,-0.0369,-0.0368,-0.0368,-0.0301,-0.0294,-0.0288,0,0,0,0,0,0,-0.0028,-0.0057,-0.0073,-0.0072,-0.0094,-0.0135,-0.0136,-0.0158,-0.0184,-0.0186,-0.0233,-0.0242,-0.0258,-0.0286,-0.0285,-0.031,-0.0337,-0.0338,-0.0283,-0.0277,-0.0272,-0.0249,-0.0322,0,0,0,0,0,-0.0019,-0.002,-0.0052,-0.0051,-0.0058,-0.0096,-0.0107,-0.0127,-0.0156,-0.0168,-0.0201,-0.0235,-0.0263,-0.0276,-0.0306,-0.0317,-0.0346,-0.0318,-0.0313,-0.0308,-0.0296,-0.0335,-0.0332,-0.0365,-0.0365,-0.0365,0,0,-0.0006,-0.0021,-0.0023,-0.0044,-0.0064,-0.0062,-0.0103,-0.0112,-0.0112,-0.0171,-0.0179,-0.0218,-0.0263,-0.0277,-0.0286,-0.0298,-0.0314,-0.0308,-0.0303,-0.0294,-0.0334,-0.0331,-0.0328,-0.0365,-0.0365,-0.0365,0,0,0.0025,0.0007,0.0019,0.0008,-0.0012,-0.0034,-0.0032,-0.0066,-0.0082,-0.0099,-0.014,-0.0168,-0.0211,-0.0239,-0.0259,-0.0243,-0.0286,-0.0255,-0.0209,-0.0246,-0.0244,-0.0242,-0.0268,-0.0269,-0.0251,-0.0251,-0.0251,0,0.0043,0.0053,0.002,0.0032,0.0032,-0.0014,0.0004,-0.0019,-0.0057,-0.0063,-0.0089,-0.0153,-0.0192,-0.0208,-0.0205,-0.023,-0.0256,-0.0227,-0.0238,-0.0237,-0.0236,-0.0264,-0.0266,-0.0247,-0.0248,-0.0248,-0.0249,0,0.0084,0.0093,0.0102,0.0101,0.0096,0.0104,0.0073,0.0064,0.0036,0.0011,-0.0015,-0.0076,-0.011,-0.0132,-0.0164,-0.0175,-0.0197,-0.0228,-0.025,-0.0228,-0.026,-0.0263,-0.0242,-0.0244,-0.0245,-0.0246,0,0,0.0126,0.0131,0.0136,0.0151,0.0137,0.014,0.0142,0.0133,0.0144,0.0089,0.0092,0.0029,-0.0008,-0.0033,-0.0083,-0.0119,-0.014,-0.0164,-0.0168,-0.0182,-0.0216,-0.0223,-0.0228,-0.0175,-0.0176,-0.0176,-0.0238,0,0.0171,0.0214,0.02,0.0242,0.0263,0.0231,0.0237,0.0221,0.0199,0.0189,0.0117,0.0098,0.0031,0.0017,-0.003,-0.011,-0.0147,-0.012,-0.0242,-0.0245,-0.0248,-0.0232,-0.0198,-0.0249,-0.0241,-0.0242,-0.0242,0,0.0222,0.0244,0.0294,0.0318,0.0324,0.0336,0.035,0.0355,0.0324,0.0304,0.0267,0.021,0.0155,0.009,-0.0033,-0.0014,-0.0103,-0.0174,-0.0179,-0.0211,-0.0258,-0.0272,-0.0256,-0.0408,-0.0248,-0.0248,-0.0247,0,0.0276,0.0314,0.0358,0.0367,0.038,0.0393,0.0401,0.0389,0.0416,0.0386,0.0395,0.0306,0.0275,0.0147,0.0002,-0.0016,-0.0137,-0.0183,-0.0275,-0.0277,-0.0283,-0.0285,-0.042,-0.0271,-0.0271,-0.027,-0.027,0,0.0335,0.0371,0.0387,0.0411,0.0469,0.0453,0.0511,0.0503,0.0513,0.0558,0.0463,0.0479,0.0288,0.0194,0.004,-0.0116,-0.0109,-0.0257,-0.0291,-0.0257,-0.0255,-0.0417,-0.0519,-0.0273,-0.0272,-0.0272,-0.0271,0,0.0388,0.0396,0.0452,0.0479,0.0496,0.0538,0.0596,0.064,0.0632,0.0689,0.0686,0.0615,0.0499,0.0302,0.0106,-0.0046,-0.0301,-0.027,-0.021,-0.0236,-0.0465,-0.0564,-0.0757,-0.0828,-0.0379,-0.038,-0.038,0,0.0418,0.0452,0.0511,0.0555,0.0571,0.0633,0.0681,0.07,0.0762,0.0784,0.0823,0.0733,0.0702,0.0412,0.013,-0.0133,-0.0307,-0.0291,-0.0325,-0.0464,-0.0601,-0.0684,-0.0736,-0.0307,-0.0307,-0.0307,-0.0307,0,0.0481,0.0497,0.0545,0.0635,0.0696,0.0778,0.0851,0.092,0.0951,0.1008,0.1069,0.1048,0.0777,0.0543,0.0168,-0.0029,-0.04,-0.0296,-0.046,-0.0567,-0.0648,-0.0735,-0.0279,-0.0306,-0.0306,-0.0306,-0.0306,-0.0306,0.0527,0.0573,0.0635,0.0724,0.0802,0.0908,0.099,0.1086,0.1204,0.1296,0.1266,0.1282,0.0913,0.0425,0.0134,-0.0369,-0.0405,-0.0518,-0.0628,-0.0701,-0.0767,-0.03,-0.0354,-0.0355,-0.0355,-0.0355,-0.0356,0,0.0586,0.0637,0.0723,0.0826,0.0924,0.0953,0.1095,0.119,0.1348,0.1446,0.151,0.1368,0.0917,0.0431,-0.0246,-0.0617,-0.0768,-0.0833,-0.0946,-0.0985,-0.0577,-0.0569,-0.0646,-0.0646,-0.0646,-0.0646,-0.0646,-0.0646,0.0617,0.0704,0.0746,0.0909,0.0989,0.1125,0.1212,0.1361,0.1475,0.1621,0.1663,0.1655,0.1305,0.0077,-0.0751,-0.0953,-0.1226,-0.1299,-0.1447,-0.1168,-0.1147,-0.1127,-0.1142,-0.1338,-0.1339,-0.1782,-0.1787,-0.179]}],[{"header":{"parameterUnit":"m.s-1","parameterCategory":2,"la1":30.2991,"la2":30.254,"lo1":-89.0895,"lo2":-89.0444,"dy":0.0017,"dx":0.0017,"nx":28,"ny":28,"refTime":"2024-10-06T03:00:00:Z","depth":"2","parameterNumber":2,"parameterNumberName":"U-component_of_CURRENTS"},"data":[0,0,0,0,0,0,0,0,0,0,0,0,0,0,0,0,0,0,0,0,0,0,0,0,0,0,0,0,0,0,0,0,0,0,0,0,0,0,0,0,0,0,0,0,0,0,0,0,0,0,0,0,0,0,0,0,0,0,0.2763,0.2764,0,0.2787,0.2787,0.2787,0.2791,0.2791,0.2791,0.2791,0.2792,0.2792,0.2792,0,0,0,0,0,0,0,0,0,0,0,0,0,0.2718,0.2719,0.2763,0.2764,0.2764,0.2787,0.2787,0.2787,0.2791,0.2791,0.2791,0.2791,0.2792,0.2792,0.2792,0,0,0,0,0,0,0,0,0,0,0,0,0,0.2737,0.2719,0.2763,0.2771,0.2772,0.2787,0.2787,0.2787,0.2791,0.2791,0.2791,0.2791,0.2792,0.2792,0.2792,0.2792,0,0,0.2792,0.2792,0,0,0,0,0,0,0,0,0.2736,0.2738,0.2769,0.277,0.2771,0.2788,0.2772,0.2789,0.2791,0.2781,0.2791,0.2791,0.279,0.279,0.2792,0.2792,0.2792,0.2792,0.2792,0.2792,0.2792,0,0,0,0,0,0,0,0.2735,0.2738,0.277,0.277,0.2771,0.2772,0.2774,0.2775,0.2783,0.2782,0.2783,0.2789,0.279,0.2792,0.2792,0.2792,0.2792,0.2792,0.2792,0.2792,0.2848,0.2849,0,0,0,0,0,0,0.2737,0.2736,0.277,0.2771,0.2756,0.2773,0.2775,0.2781,0.2783,0.2785,0.2789,0.2789,0.2791,0.2792,0.2792,0.2836,0.2792,0.2792,0.2792,0.2846,0.2848,0.2849,0,0,0,0,0,0,0.2736,0.274,0.2769,0.2756,0.276,0.2774,0.278,0.2781,0.2796,0.279,0.279,0.2804,0.2791,0.2792,0.281,0.2834,0.2792,0.2792,0.2844,0.2847,0.2849,0.2895,0,0,0,0,0,0,0.2734,0.2739,0.2746,0.2756,0.2761,0.2789,0.278,0.2782,0.28,0.2801,0.2802,0.2801,0.2791,0.281,0.281,0.2833,0.2792,0.2843,0.2845,0.2848,0.2892,0.2899,0.2905,0,0,0,0,0,0.2733,0.2741,0.2746,0.2751,0.277,0.279,0.2793,0.28,0.2801,0.2812,0.2817,0.2802,0.2828,0.2812,0.2811,0.2834,0.2841,0.2845,0.2848,0.2889,0.2897,0.2904,0,0,0,0,0,0,0.2724,0.2743,0.2748,0.2762,0.2781,0.2792,0.2804,0.281,0.2822,0.2826,0.2816,0.2817,0.2845,0.2835,0.2817,0.2861,0.2834,0.2837,0.2865,0.2873,0.2879,0.2891,0.2792,0,0,0,0,0,0.2726,0.2739,0.2758,0.2771,0.2783,0.2797,0.2807,0.2816,0.2827,0.2833,0.2835,0.2842,0.2857,0.2861,0.287,0.2887,0.2897,0.2904,0.2911,0.2916,0.2927,0.2963,0.2974,0.286,0.286,0.286,0,0,0.2726,0.274,0.2746,0.2771,0.2785,0.2806,0.2803,0.2827,0.2847,0.2831,0.2858,0.2866,0.2869,0.2894,0.2906,0.2888,0.2956,0.292,0.2924,0.2932,0.2968,0.2979,0.2989,0.2862,0.2862,0.2862,0,0,0.2731,0.2746,0.276,0.278,0.281,0.2821,0.2833,0.2855,0.2869,0.2895,0.2896,0.2922,0.2931,0.2945,0.2951,0.2998,0.2992,0.3,0.3035,0.307,0.308,0.3089,0.3122,0.3133,0.2998,0.2998,0.2998,0,0.2731,0.275,0.2768,0.279,0.281,0.2831,0.2854,0.2873,0.2898,0.2917,0.291,0.2957,0.2957,0.3,0.3018,0.3013,0.3031,0.3003,0.3079,0.3087,0.3095,0.3127,0.3139,0.3001,0.3,0.3,0.3,0,0.2746,0.2767,0.278,0.2814,0.2839,0.2864,0.2896,0.2921,0.294,0.2959,0.301,0.302,0.3048,0.3055,0.305,0.311,0.3106,0.3086,0.3057,0.3109,0.314,0.3151,0.3004,0.3003,0.3003,0.3002,0,0,0.2725,0.2779,0.2783,0.2802,0.2856,0.2871,0.2919,0.2963,0.3,0.3026,0.3075,0.3107,0.3121,0.3131,0.3135,0.3165,0.3237,0.3152,0.3153,0.3183,0.3322,0.3288,0.3297,0.3231,0.3233,0.3234,0.3323,0,0.2732,0.2766,0.28,0.2837,0.2858,0.2904,0.2946,0.2991,0.3035,0.3088,0.3118,0.3167,0.3148,0.3175,0.3203,0.3236,0.3268,0.3215,0.327,0.3272,0.3233,0.331,0.305,0.3105,0.3333,0.3335,0.3337,0,0.2731,0.2756,0.2791,0.2849,0.2865,0.2894,0.2969,0.3012,0.3096,0.3141,0.3198,0.3226,0.329,0.3261,0.3341,0.3309,0.3324,0.3339,0.3342,0.3303,0.3259,0.3089,0.3116,0.3355,0.3354,0.3352,0.3351,0,0.2689,0.2746,0.2771,0.279,0.2862,0.2892,0.2936,0.3023,0.3079,0.3183,0.3237,0.3307,0.3358,0.3389,0.3423,0.3392,0.3507,0.346,0.3443,0.344,0.3227,0.3202,0.3516,0.3516,0.3516,0.3515,0.3515,0,0.2673,0.269,0.2751,0.2761,0.2804,0.2866,0.2931,0.2998,0.3108,0.3174,0.3258,0.3325,0.3395,0.346,0.3466,0.3504,0.3542,0.3475,0.347,0.3237,0.3214,0.3428,0.3416,0.3519,0.3518,0.3517,0.3517,0,0.262,0.266,0.2689,0.2758,0.2783,0.2812,0.2923,0.2972,0.309,0.3184,0.3224,0.3368,0.3458,0.3517,0.3593,0.3565,0.3598,0.3595,0.3324,0.3286,0.3494,0.3484,0.3587,0.3586,0.3586,0.3586,0.3586,0,0.2593,0.2602,0.267,0.2687,0.2718,0.2776,0.282,0.2949,0.3009,0.3191,0.3225,0.3374,0.3448,0.3572,0.3569,0.36,0.3626,0.336,0.3249,0.3521,0.3506,0.3497,0.3487,0.2983,0.2978,0.2974,0.2971,0,0.2542,0.2569,0.2591,0.2631,0.2669,0.2712,0.2783,0.2829,0.2973,0.3062,0.3182,0.3269,0.3416,0.335,0.3418,0.3387,0.3335,0.3278,0.3637,0.3015,0.2962,0.2944,0.2953,0.2934,0.2937,0.294,0.2942,0.2944,0.2501,0.2502,0.2534,0.2562,0.2601,0.262,0.262,0.2701,0.2774,0.2861,0.3024,0.3062,0.3136,0.3119,0.3045,0.2991,0.3211,0.3042,0.305,0.3064,0.2988,0.2938,0.2892,0.2895,0.2898,0.2901,0.2903,0,0.2435,0.2444,0.2464,0.2479,0.2469,0.2532,0.2568,0.2538,0.2555,0.2672,0.2751,0.2591,0.2586,0.2646,0.2529,0.2558,0.2486,0.2434,0.2298,0.2341,0.2377,0.2259,0.1973,0.1969,0.1966,0.1963,0,0,0.2401,0.2379,0.2382,0.2333,0.2346,0.2294,0.2285,0.2263,0.2299,0.2277,0.228,0.2478,0.2594,0.2237,0.2216,0.2067,0.2173,0.199,0.275,0.2634,0.2665,0.276,0.2633,0,0,0,0,0]},{"header":{"parameterUnit":"m.s-1","parameterCategory":2,"la1":30.2991,"la2":30.254,"lo1":-89.0895,"lo2":-89.0444,"dy":0.0017,"dx":0.0017,"nx":28,"ny":28,"refTime":"2024-10-06T03:00:00:Z","depth":"2","parameterNumber":3,"parameterNumberName":"V-component_of_CURRENTS"},"data":[0,0,0,0,0,0,0,0,0,0,0,0,0,0,0,0,0,0,0,0,0,0,0,0,0,0,0,0,0,0,0,0,0,0,0,0,0,0,0,0,0,0,0,0,0,0,0,0,0,0,0,0,0,0,0,0,0,0,0.0093,0.0092,0,0.0028,0.0027,0.0026,-0.002,-0.0021,-0.0021,-0.0021,-0.0096,-0.0098,-0.01,0,0,0,0,0,0,0,0,0,0,0,0,0,0.0135,0.0135,0.0093,0.0092,0.0092,0.0028,0.0027,0.0026,-0.002,-0.0021,-0.0021,-0.0021,-0.0096,-0.0098,-0.01,0,0,0,0,0,0,0,0,0,0,0,0,0,0.0097,0.0135,0.0093,0.0062,0.0058,0.0028,0.0027,0.0026,-0.002,-0.0021,-0.0021,-0.0021,-0.0095,-0.0098,-0.01,-0.0108,0,0,-0.0108,-0.0109,0,0,0,0,0,0,0,0,0.01,0.0096,0.0067,0.0064,0.006,0.0012,0.0014,-0.0019,-0.002,0.0009,-0.0021,-0.0022,-0.006,-0.0065,-0.0078,-0.0112,-0.0115,-0.0108,-0.011,-0.0111,-0.0112,0,0,0,0,0,0,0,0.0102,0.0098,0.0066,0.0066,0.0062,0.0036,0.0031,0.0007,-0.0023,0.0006,0.0003,-0.0003,-0.0062,-0.0075,-0.008,-0.0116,-0.0108,-0.0111,-0.0112,-0.0113,-0.0165,-0.0165,0,0,0,0,0,0,0.0115,0.0101,0.0068,0.0064,0.008,0.0036,0.003,0.0027,-0.0023,-0.0031,-0.0002,-0.0005,-0.0071,-0.0077,-0.0083,-0.0087,-0.0111,-0.0114,-0.0115,-0.0165,-0.0165,-0.0165,0,0,0,0,0,0,0.0116,0.0113,0.0071,0.0082,0.0075,0.0036,0.0033,0.0026,0.0013,-0.0029,-0.0037,-0.0008,-0.0071,-0.0079,-0.0099,-0.0091,-0.0115,-0.0117,-0.0166,-0.0165,-0.0165,-0.0101,0,0,0,0,0,0,0.0118,0.0114,0.0116,0.0083,0.0074,0.0061,0.0034,0.0025,0.0011,0.0007,-0.0037,-0.0044,-0.0072,-0.0095,-0.0102,-0.0095,-0.0119,-0.0166,-0.0166,-0.0165,-0.0103,-0.0099,-0.0094,0,0,0,0,0,0.012,0.0129,0.0117,0.0113,0.0079,0.0062,0.0056,0.0026,0.0011,0.0011,-0.0019,-0.0043,-0.0098,-0.0097,-0.0105,-0.0099,-0.0166,-0.0166,-0.0165,-0.0105,-0.01,-0.0095,0,0,0,0,0,0,0.0148,0.0125,0.011,0.0112,0.0091,0.0055,0.0052,0.0031,0.0006,0.0002,-0.0039,-0.0049,-0.0064,-0.009,-0.0088,-0.0114,-0.0136,-0.0138,-0.0088,-0.0083,-0.0079,-0.0058,-0.0121,0,0,0,0,0,0.0157,0.0157,0.0129,0.013,0.0123,0.0088,0.0077,0.0057,0.0031,0.0019,-0.0012,-0.0044,-0.0069,-0.0082,-0.0109,-0.012,-0.0148,-0.0123,-0.0118,-0.0114,-0.0103,-0.0141,-0.0139,-0.0164,-0.0164,-0.0164,0,0,0.0167,0.0155,0.0154,0.0136,0.0117,0.0118,0.008,0.007,0.0069,0.0016,0.0006,-0.003,-0.0069,-0.0083,-0.0092,-0.0103,-0.0122,-0.0113,-0.0109,-0.0101,-0.014,-0.0138,-0.0136,-0.0163,-0.0163,-0.0163,0,0,0.0194,0.0179,0.019,0.018,0.016,0.0141,0.0142,0.0109,0.0093,0.0077,0.0039,0.0013,-0.0028,-0.0052,-0.0069,-0.0056,-0.0098,-0.0069,-0.0028,-0.0064,-0.0063,-0.0061,-0.0091,-0.0093,-0.0065,-0.0065,-0.0065,0,0.0207,0.0219,0.0191,0.0201,0.0201,0.0158,0.0173,0.0152,0.0116,0.011,0.0083,0.0025,-0.0011,-0.0024,-0.0022,-0.0045,-0.0072,-0.0043,-0.0058,-0.0057,-0.0057,-0.0088,-0.009,-0.0062,-0.0062,-0.0063,-0.0063,0,0.0245,0.0254,0.0262,0.0263,0.0257,0.0264,0.0236,0.0226,0.0198,0.0174,0.0149,0.0093,0.0061,0.0041,0.0012,0.0,-0.0022,-0.0048,-0.0067,-0.005,-0.0084,-0.0088,-0.0057,-0.0058,-0.0059,-0.006,0,0,0.0279,0.0287,0.0291,0.0307,0.0294,0.0297,0.0298,0.029,0.0299,0.0245,0.0247,0.0189,0.0153,0.013,0.0085,0.005,0.0024,0.0008,0.0004,-0.0014,-0.0054,-0.0068,-0.0074,-0.0007,-0.0008,-0.0008,-0.0078,0,0.0319,0.036,0.0349,0.0388,0.0408,0.0379,0.0385,0.037,0.0349,0.0338,0.027,0.0252,0.0189,0.0174,0.0129,0.0054,0.0016,0.0045,-0.0075,-0.0078,-0.0086,-0.0078,-0.0047,-0.0106,-0.0082,-0.0083,-0.0083,0,0.0363,0.0386,0.0432,0.0458,0.0464,0.0475,0.0489,0.0494,0.0465,0.0446,0.0409,0.0354,0.03,0.0238,0.0118,0.0139,0.0052,-0.0015,-0.002,-0.0056,-0.0099,-0.0122,-0.0115,-0.0091,-0.009,-0.0089,-0.0089,0,0.0409,0.0447,0.0489,0.0498,0.0514,0.0526,0.0535,0.0525,0.0551,0.0521,0.0528,0.0441,0.0408,0.0285,0.0144,0.013,0.0006,-0.0032,-0.0128,-0.013,-0.0137,-0.0139,-0.012,-0.0119,-0.0119,-0.0119,-0.0119,0,0.0461,0.0495,0.0514,0.0537,0.0592,0.058,0.0635,0.0629,0.064,0.0682,0.0591,0.06,0.0417,0.0322,0.0177,0.002,0.0029,-0.0115,-0.0148,-0.0114,-0.0113,-0.0128,-0.0128,-0.0122,-0.0121,-0.0121,-0.012,0,0.0506,0.0516,0.0569,0.0599,0.0615,0.0655,0.0714,0.0758,0.0751,0.0802,0.0798,0.0723,0.0602,0.0414,0.0221,0.0079,-0.008,-0.0141,-0.0085,-0.011,-0.0202,-0.0198,-0.0254,-0.0255,-0.0255,-0.0256,-0.0257,0,0.0532,0.0564,0.0623,0.0665,0.0681,0.0742,0.0791,0.0813,0.0872,0.0887,0.0921,0.0822,0.0776,0.0489,0.0222,-0.0033,-0.0074,-0.018,-0.0205,-0.0188,-0.0215,-0.021,-0.0205,-0.0192,-0.0192,-0.0192,-0.0192,0,0.0588,0.0603,0.0649,0.0737,0.0796,0.0879,0.0951,0.1014,0.1046,0.109,0.1129,0.1094,0.0822,0.0579,0.0221,0.0046,-0.0139,-0.0189,-0.0186,-0.0159,-0.0135,-0.016,-0.0156,-0.0192,-0.0192,-0.0192,-0.0192,-0.0192,0.0628,0.0672,0.0732,0.0818,0.0895,0.0998,0.1076,0.1161,0.1264,0.1325,0.1288,0.124,0.095,0.0508,0.0196,-0.0141,-0.0129,-0.0247,-0.0245,-0.0243,-0.022,-0.0198,-0.0263,-0.0263,-0.0264,-0.0264,-0.0264,0,0.0681,0.0731,0.0812,0.0912,0.1005,0.1038,0.1173,0.1253,0.138,0.1427,0.1455,0.1193,0.0916,0.0572,0.0082,-0.0208,-0.0232,-0.0303,-0.0266,-0.0263,-0.0261,-0.0238,-0.0287,-0.0288,-0.0289,-0.0289,0,0,0.0709,0.0791,0.0832,0.0986,0.1062,0.1193,0.1274,0.139,0.1459,0.1512,0.1487,0.1426,0.1022,0.0668,0.0273,-0.0011,-0.0075,-0.007,-0.0018,0.0075,0.0081,-0.0193,-0.015,0,0,0,0,0]}],[{"header":{"parameterUnit":"m.s-1","parameterCategory":2,"la1":30.2991,"la2":30.254,"lo1":-89.0895,"lo2":-89.0444,"dy":0.0017,"dx":0.0017,"nx":28,"ny":28,"refTime":"2024-10-06T03:00:00:Z","depth":"4","parameterNumber":2,"parameterNumberName":"U-component_of_CURRENTS"},"data":[0,0,0,0,0,0,0,0,0,0,0,0,0,0,0,0,0,0,0,0,0,0,0,0,0,0,0,0,0,0,0,0,0,0,0,0,0,0,0,0,0,0,0,0,0,0,0,0,0,0,0,0,0,0,0,0,0,0,0.1786,0.1787,0,0.1844,0.1845,0.1846,0.19,0.1901,0.1902,0.1902,0.1972,0.1973,0.1974,0,0,0,0,0,0,0,0,0,0,0,0,0,0.1713,0.1714,0.1786,0.1787,0.1788,0.1844,0.1845,0.1846,0.19,0.1901,0.1902,0.1903,0.1971,0.1972,0.1974,0,0,0,0,0,0,0,0,0,0,0,0,0,0.1754,0.1714,0.1786,0.1823,0.1827,0.1844,0.1845,0.1846,0.19,0.1901,0.1902,0.1903,0.1971,0.1972,0.1974,0.1959,0,0,0.1979,0.198,0,0,0,0,0,0,0,0,0.1751,0.1756,0.1816,0.182,0.1825,0.1868,0.1845,0.1885,0.1899,0.187,0.1902,0.1904,0.1938,0.1942,0.1948,0.1963,0.1966,0.1979,0.198,0.1981,0.1981,0,0,0,0,0,0,0,0.1748,0.1754,0.1807,0.1817,0.1822,0.1834,0.1841,0.1852,0.1895,0.1873,0.1877,0.1886,0.194,0.1946,0.195,0.1967,0.1979,0.198,0.1981,0.1982,0.2092,0.2094,0,0,0,0,0,0,0.1744,0.1751,0.1806,0.1809,0.1792,0.1834,0.1842,0.1851,0.1895,0.1903,0.1885,0.1888,0.1943,0.1948,0.1953,0.2043,0.1981,0.1982,0.1983,0.209,0.2092,0.2094,0,0,0,0,0,0,0.1742,0.1748,0.1803,0.1783,0.1791,0.1834,0.1844,0.1852,0.1898,0.1905,0.1913,0.1929,0.1944,0.1951,0.2002,0.2042,0.1983,0.1984,0.2088,0.2091,0.2093,0.2156,0,0,0,0,0,0,0.1739,0.1747,0.177,0.1782,0.1792,0.184,0.1843,0.1852,0.19,0.1906,0.1944,0.1949,0.1946,0.2,0.2004,0.2043,0.1986,0.2085,0.2089,0.2092,0.2152,0.2161,0.2169,0,0,0,0,0,0.1736,0.1756,0.1771,0.1778,0.1816,0.1841,0.1848,0.188,0.1902,0.1927,0.1958,0.195,0.2026,0.2003,0.2007,0.2048,0.2083,0.2088,0.2092,0.2148,0.2159,0.2168,0,0,0,0,0,0,0.1739,0.1764,0.178,0.1809,0.1837,0.1852,0.1884,0.1903,0.1946,0.1966,0.1971,0.1978,0.204,0.2036,0.201,0.2092,0.2055,0.206,0.2096,0.2107,0.2115,0.2118,0.1987,0,0,0,0,0,0.1748,0.1774,0.1795,0.1824,0.1842,0.1871,0.1893,0.1916,0.1946,0.1969,0.1994,0.2025,0.2053,0.2075,0.2096,0.2137,0.2138,0.2168,0.2177,0.2184,0.2191,0.2225,0.2237,0.2109,0.2109,0.2109,0,0,0.1757,0.1777,0.1793,0.1828,0.1855,0.1883,0.1889,0.1935,0.1969,0.1967,0.2037,0.2059,0.2072,0.2122,0.2149,0.2129,0.2224,0.219,0.2195,0.2199,0.2231,0.2244,0.2255,0.2112,0.2111,0.2111,0,0,0.1776,0.1809,0.1833,0.186,0.1907,0.1922,0.1944,0.1984,0.2019,0.2074,0.2087,0.2136,0.2177,0.2196,0.2207,0.2276,0.2269,0.2291,0.2337,0.2371,0.2381,0.239,0.2415,0.2426,0.2294,0.2294,0.2295,0,0.1791,0.182,0.1846,0.1876,0.1906,0.1943,0.1977,0.2011,0.2067,0.2098,0.211,0.2194,0.221,0.2265,0.2295,0.2296,0.2312,0.2294,0.2381,0.239,0.2398,0.2421,0.2432,0.2298,0.2298,0.2297,0.2297,0,0.1812,0.1853,0.1874,0.1922,0.1957,0.1996,0.2039,0.2089,0.2137,0.2167,0.2249,0.2277,0.2325,0.2343,0.2342,0.2415,0.2407,0.2387,0.2351,0.2415,0.2435,0.2446,0.2303,0.2302,0.2301,0.23,0,0,0.1799,0.1874,0.1886,0.1917,0.1988,0.2011,0.2082,0.2142,0.2195,0.2258,0.2324,0.2384,0.2412,0.2428,0.2442,0.2476,0.2553,0.2467,0.2467,0.2485,0.2633,0.248,0.2476,0.2553,0.2555,0.2557,0.2625,0,0.1813,0.1868,0.1908,0.1972,0.2002,0.2064,0.2122,0.2187,0.2251,0.2324,0.2374,0.2445,0.2439,0.2483,0.2517,0.2549,0.2584,0.2536,0.2574,0.2575,0.2425,0.2484,0.2563,0.2633,0.2635,0.2637,0.2638,0,0.1813,0.1852,0.1914,0.1995,0.2017,0.2068,0.2168,0.2227,0.233,0.2386,0.2464,0.2506,0.2587,0.2568,0.2651,0.2626,0.2642,0.2654,0.2656,0.2495,0.244,0.2555,0.2657,0.2655,0.2654,0.2653,0.2652,0,0.1767,0.1853,0.1904,0.1933,0.203,0.2083,0.2147,0.2252,0.2314,0.244,0.2499,0.2587,0.2651,0.2687,0.2725,0.2703,0.28,0.2764,0.2637,0.2626,0.2715,0.2705,0.2817,0.2817,0.2817,0.2816,0.2816,0,0.1741,0.1786,0.1893,0.1917,0.1991,0.2071,0.2163,0.2242,0.2362,0.2428,0.2534,0.2589,0.2689,0.2749,0.2759,0.2731,0.2829,0.2654,0.2635,0.2741,0.2733,0.2723,0.2711,0.2819,0.2818,0.2818,0.2818,0,0.1675,0.1748,0.1811,0.1927,0.1971,0.2026,0.2166,0.2219,0.2352,0.2445,0.2493,0.2627,0.2698,0.2768,0.2839,0.2761,0.2758,0.2724,0.2851,0.2836,0.2553,0.2544,0.2576,0.2572,0.2568,0.2564,0.2561,0,0.1641,0.167,0.1803,0.1844,0.1905,0.2001,0.2061,0.2204,0.2256,0.2434,0.2457,0.2593,0.2658,0.2633,0.2719,0.2731,0.2698,0.2678,0.2594,0.2551,0.253,0.2528,0.2525,0.2555,0.2554,0.2553,0.2552,0,0.1572,0.1641,0.1692,0.178,0.1853,0.1915,0.2012,0.2036,0.2186,0.2327,0.2367,0.2409,0.2485,0.2529,0.2568,0.2566,0.2677,0.2635,0.2642,0.2563,0.2525,0.2508,0.251,0.2537,0.2539,0.2541,0.2542,0,0.1528,0.1547,0.1628,0.1689,0.1774,0.1797,0.1861,0.1913,0.1985,0.2171,0.2181,0.232,0.2455,0.2445,0.2475,0.2471,0.2424,0.2333,0.2355,0.2372,0.2273,0.2193,0.2094,0,0,0,0,0,0.147,0.1476,0.1526,0.1575,0.1653,0.1702,0.1809,0.1871,0.2013,0.1989,0.2079,0.2136,0.2184,0.2259,0.2213,0.2386,0.2437,0.2322,0.2344,0.2459,0.2475,0.2376,0,0,0,0,0,0,0.1428,0.1473,0.1484,0.1467,0.1479,0.1543,0.1604,0.1701,0.1691,0.1848,0.1886,0.2012,0.2092,0.2191,0.2174,0.2197,0.2167,0.2417,0.2411,0.2449,0.2464,0.2477,0.2382,0,0,0,0,0]},{"header":{"parameterUnit":"m.s-1","parameterCategory":2,"la1":30.2991,"la2":30.254,"lo1":-89.0895,"lo2":-89.0444,"dy":0.0017,"dx":0.0017,"nx":28,"ny":28,"refTime":"2024-10-06T03:00:00:Z","depth":"4","parameterNumber":3,"parameterNumberName":"V-component_of_CURRENTS"},"data":[0,0,0,0,0,0,0,0,0,0,0,0,0,0,0,0,0,0,0,0,0,0,0,0,0,0,0,0,0,0,0,0,0,0,0,0,0,0,0,0,0,0,0,0,0,0,0,0,0,0,0,0,0,0,0,0,0,0,0.0167,0.0167,0,0.0126,0.0125,0.0125,0.0097,0.0097,0.0097,0.0096,0.0046,0.0045,0.0043,0,0,0,0,0,0,0,0,0,0,0,0,0,0.0191,0.019,0.0167,0.0167,0.0166,0.0126,0.0125,0.0124,0.0097,0.0097,0.0096,0.0096,0.0046,0.0045,0.0043,0,0,0,0,0,0,0,0,0,0,0,0,0,0.0167,0.019,0.0167,0.0148,0.0146,0.0126,0.0125,0.0124,0.0097,0.0097,0.0096,0.0096,0.0047,0.0045,0.0043,0.0035,0,0,0.0037,0.0037,0,0,0,0,0,0,0,0,0.0169,0.0166,0.0152,0.015,0.0147,0.0117,0.0115,0.0094,0.0097,0.0115,0.0096,0.0096,0.0069,0.0066,0.0057,0.0033,0.0031,0.0037,0.0036,0.0035,0.0035,0,0,0,0,0,0,0,0.017,0.0168,0.015,0.0151,0.0148,0.0131,0.0127,0.0111,0.0093,0.0113,0.0111,0.0108,0.0068,0.0059,0.0056,0.003,0.0037,0.0036,0.0034,0.0034,-0.0005,-0.0005,0,0,0,0,0,0,0.0179,0.017,0.0151,0.0149,0.0158,0.0131,0.0127,0.0126,0.0093,0.0088,0.0108,0.0107,0.0062,0.0058,0.0054,0.0053,0.0035,0.0034,0.0032,-0.0005,-0.0005,-0.0005,0,0,0,0,0,0,0.018,0.0178,0.0153,0.0159,0.0154,0.0131,0.013,0.0125,0.0119,0.0089,0.0084,0.0107,0.0062,0.0057,0.0044,0.005,0.0033,0.0031,-0.0005,-0.0005,-0.0005,0.0044,0,0,0,0,0,0,0.018,0.0178,0.0183,0.0159,0.0154,0.0147,0.013,0.0125,0.0118,0.0115,0.0087,0.0082,0.0061,0.0047,0.0042,0.0048,0.003,-0.0005,-0.0005,-0.0005,0.0043,0.0046,0.0049,0,0,0,0,0,0.0181,0.0189,0.0183,0.0181,0.0161,0.0148,0.0144,0.0125,0.0118,0.0118,0.0099,0.0083,0.0044,0.0046,0.004,0.0045,-0.0006,-0.0005,-0.0005,0.0041,0.0046,0.0049,0,0,0,0,0,0,0.0201,0.0187,0.0179,0.0183,0.0169,0.0144,0.0144,0.013,0.0115,0.0115,0.0085,0.0079,0.0069,0.005,0.0052,0.0033,0.0016,0.0015,0.0053,0.0057,0.006,0.0076,0.0028,0,0,0,0,0,0.0208,0.0212,0.0192,0.0195,0.0191,0.0169,0.0162,0.015,0.0132,0.0125,0.0104,0.0082,0.0064,0.0056,0.0036,0.0029,0.0004,0.0027,0.003,0.0033,0.0041,0.0007,0.0008,-0.0005,-0.0005,-0.0005,0,0,0.0216,0.0209,0.0211,0.02,0.0189,0.019,0.0164,0.0159,0.016,0.0123,0.0119,0.0094,0.0064,0.0055,0.0049,0.0041,0.0023,0.0033,0.0036,0.0043,0.0007,0.0008,0.0009,-0.0004,-0.0004,-0.0004,0,0,0.0236,0.0229,0.0239,0.0233,0.0222,0.0209,0.021,0.0188,0.0179,0.017,0.0144,0.0125,0.0097,0.0078,0.0065,0.0074,0.0041,0.0065,0.0097,0.0063,0.0064,0.0064,0.0034,0.0032,0.0068,0.0068,0.0068,0,0.0246,0.0258,0.024,0.0248,0.0251,0.0222,0.0235,0.022,0.0197,0.0194,0.0176,0.0135,0.0109,0.0098,0.01,0.0083,0.0058,0.0086,0.0068,0.0068,0.0068,0.0037,0.0033,0.0071,0.007,0.007,0.007,0,0.0272,0.0283,0.029,0.0294,0.0292,0.0299,0.028,0.0275,0.0259,0.0243,0.0226,0.0185,0.0162,0.0147,0.0127,0.0114,0.0096,0.0076,0.0061,0.0072,0.0038,0.0034,0.0074,0.0073,0.0072,0.0072,0,0,0.0293,0.0307,0.0311,0.0326,0.032,0.0324,0.0327,0.0324,0.0334,0.0296,0.0299,0.0256,0.0231,0.0214,0.018,0.0149,0.0122,0.0117,0.0114,0.0094,0.0049,0.0037,0.0031,0.0098,0.0098,0.0098,0.0026,0,0.0321,0.0354,0.0351,0.0385,0.0401,0.0385,0.0393,0.0385,0.0372,0.0366,0.0315,0.0304,0.0258,0.0249,0.021,0.0148,0.0113,0.0144,0.0036,0.0033,0.0027,0.0026,0.0096,0.0023,0.0022,0.0021,0.002,0,0.0349,0.037,0.0409,0.0437,0.0443,0.0457,0.0475,0.0482,0.0464,0.0452,0.0424,0.0384,0.0338,0.0293,0.0189,0.021,0.0137,0.0081,0.0076,0.0047,0.0014,0.0008,0.0012,0.0012,0.0013,0.0013,0.0014,0,0.0376,0.0412,0.0449,0.0458,0.048,0.0497,0.051,0.0509,0.0532,0.0512,0.0518,0.0448,0.042,0.0319,0.0201,0.0195,0.0079,0.0054,-0.0028,-0.003,-0.002,-0.002,-0.0024,-0.0024,-0.0024,-0.0024,-0.0023,0,0.0405,0.0437,0.0468,0.0487,0.0539,0.0538,0.059,0.0591,0.0604,0.0635,0.057,0.0567,0.0425,0.034,0.0222,0.0087,0.0092,-0.002,-0.0049,0.0002,0.0005,-0.0024,-0.0022,-0.0026,-0.0026,-0.0025,-0.0025,0,0.0426,0.0445,0.0493,0.0532,0.0553,0.0591,0.0655,0.0692,0.0694,0.073,0.0728,0.0659,0.0546,0.0397,0.0232,0.0126,-0.0009,-0.0061,0.0012,-0.0011,-0.0102,-0.0098,-0.0156,-0.0157,-0.0158,-0.0159,-0.0159,0,0.0438,0.0466,0.0533,0.0573,0.0596,0.0657,0.0704,0.0734,0.0777,0.0786,0.0802,0.0713,0.0642,0.041,0.0242,0.0013,-0.0026,-0.01,-0.011,-0.0093,-0.0115,-0.011,-0.0104,-0.0161,-0.0161,-0.0161,-0.0161,0,0.0464,0.049,0.0531,0.0615,0.0675,0.075,0.0815,0.0851,0.0882,0.0888,0.0864,0.0742,0.0612,0.0419,0.024,0.0073,-0.0053,-0.0109,-0.0109,-0.0119,-0.01,-0.0119,-0.0113,-0.0164,-0.0164,-0.0164,-0.0163,0,0.0486,0.052,0.0579,0.0653,0.0734,0.081,0.0845,0.0888,0.0928,0.0927,0.0917,0.0775,0.0694,0.045,0.0288,0.0121,0.007,0.0005,-0.0001,-0.0,0.0059,0.0108,0.0086,0,0,0,0,0,0.0504,0.0545,0.0615,0.0694,0.0776,0.0827,0.0906,0.0933,0.0961,0.0953,0.0937,0.0815,0.0575,0.0479,0.031,0.0254,0.003,0.0048,-0.0049,-0.018,-0.0177,-0.0136,0,0,0,0,0,0,0.0514,0.0579,0.0613,0.0715,0.0776,0.0872,0.0925,0.0946,0.0941,0.094,0.0823,0.0763,0.0537,0.0674,0.0306,0.0256,0.0167,-0.006,-0.0064,-0.0182,-0.0179,-0.0177,-0.0133,0,0,0,0,0]}]]